When you browse on this site, cookies collect data to enhance your experience and personalize the content and advertising you see.
Visit our Privacy Policy to learn more. By continuing to use the site, you agree to this use of cookies and data.
  • In Switzerland
  • List of Countries
  • For 7 days
  • Water Temperature
  • Weather Map
  • Weather Widgets
  • user-avatar
    Login

    Hourly Weather Sherpur

    Today, 24 September, Tuesday

    Time Temperature Precipitation Wind Pressure Humidity
    00:00 +16°C° 0 mm 0 mps 611 mmHg 36%
    01:00 +15°C° 0 mm 0 mps 611 mmHg 38%
    02:00 +15°C° 0 mm 0 mps 611 mmHg 40%
    03:00 +14°C° 0 mm 0 mps 611 mmHg 45%
    04:00 +14°C° 0 mm 0 mps 610 mmHg 49%
    05:00 +14°C° 0 mm 0 mps 611 mmHg 56%
    06:00 +16°C° 0 mm 0 mps 612 mmHg 51%
    07:00 +18°C° 0 mm 0 mps 613 mmHg 45%
    08:00 +20°C° 0 mm 0 mps 614 mmHg 40%
    09:00 +24°C° 0 mm 1 mps 615 mmHg 37%
    10:00 +25°C° 0 mm 1 mps 615 mmHg 34%
    11:00 +27°C° 0 mm 1 mps 615 mmHg 31%
    12:00 +28°C° 0 mm 2 mps 615 mmHg 27%
    13:00 +29°C° 0 mm 2 mps 615 mmHg 23%
    14:00 +30°C° 0 mm 2 mps 615 mmHg 19%
    15:00 +30°C° 0 mm 2 mps 615 mmHg 19%
    16:00 +30°C° 0 mm 2 mps 615 mmHg 20%
    17:00 +30°C° 0 mm 2 mps 614 mmHg 20%
    18:00 +28°C° 0 mm 2 mps 614 mmHg 29%
    19:00 +25°C° 0 mm 2 mps 613 mmHg 37%
    20:00 +23°C° 0 mm 1 mps 613 mmHg 45%
    21:00 +22°C° 0 mm 1 mps 613 mmHg 47%
    22:00 +21°C° 0 mm 1 mps 613 mmHg 49%
    23:00 +20°C° 0 mm 1 mps 612 mmHg 51%

    Tomorrow, 25 September, Wednesday

    Time Temperature Precipitation Wind Pressure Humidity
    00:00 +17°C° 0 mm 0 mps 612 mmHg 52%
    01:00 +16°C° 0 mm 0 mps 611 mmHg 53%
    02:00 +16°C° 0 mm 0 mps 611 mmHg 54%
    03:00 +15°C° 0 mm 0 mps 611 mmHg 54%
    04:00 +15°C° 0 mm 0 mps 611 mmHg 55%
    05:00 +14°C° 0 mm 0 mps 611 mmHg 55%
    06:00 +16°C° 0 mm 0 mps 612 mmHg 48%
    07:00 +18°C° 0 mm 0 mps 613 mmHg 42%
    08:00 +22°C° 0 mm 1 mps 615 mmHg 35%
    09:00 +24°C° 0 mm 1 mps 615 mmHg 33%
    10:00 +25°C° 0 mm 1 mps 615 mmHg 31%
    11:00 +27°C° 0 mm 2 mps 616 mmHg 29%
    12:00 +28°C° 0 mm 2 mps 615 mmHg 26%
    13:00 +29°C° 0 mm 2 mps 615 mmHg 23%
    14:00 +30°C° 0 mm 2 mps 615 mmHg 19%
    15:00 +30°C° 0 mm 2 mps 615 mmHg 20%
    16:00 +30°C° 0 mm 2 mps 615 mmHg 20%
    17:00 +30°C° 0 mm 2 mps 615 mmHg 21%
    18:00 +28°C° 0 mm 2 mps 614 mmHg 28%
    19:00 +25°C° 0 mm 2 mps 614 mmHg 36%
    20:00 +23°C° 0 mm 1 mps 614 mmHg 44%
    21:00 +22°C° 0 mm 1 mps 613 mmHg 46%
    22:00 +21°C° 0 mm 1 mps 613 mmHg 49%
    23:00 +20°C° 0 mm 1 mps 613 mmHg 52%

    Day after tomorrow, 26 September, Thursday

    Time Temperature Precipitation Wind Pressure Humidity
    00:00 +18°C° 0 mm 0 mps 613 mmHg 55%
    01:00 +17°C° 0 mm 0 mps 613 mmHg 57%
    02:00 +16°C° 0 mm 0 mps 612 mmHg 60%
    03:00 +16°C° 0 mm 0 mps 612 mmHg 61%
    04:00 +16°C° 0 mm 0 mps 612 mmHg 62%
    05:00 +15°C° 0 mm 0 mps 612 mmHg 63%
    06:00 +17°C° 0 mm 0 mps 613 mmHg 56%
    07:00 +19°C° 0 mm 0 mps 614 mmHg 48%
    08:00 +21°C° 0 mm 0 mps 615 mmHg 41%
    09:00 +25°C° 0 mm 1 mps 616 mmHg 37%
    10:00 +26°C° 0 mm 1 mps 616 mmHg 32%
    11:00 +28°C° 0 mm 2 mps 616 mmHg 28%
    12:00 +29°C° 0 mm 2 mps 616 mmHg 23%
    13:00 +30°C° 0 mm 2 mps 616 mmHg 19%
    14:00 +31°C° 0 mm 2 mps 616 mmHg 15%
    15:00 +31°C° 0 mm 2 mps 616 mmHg 15%
    16:00 +31°C° 0 mm 2 mps 615 mmHg 14%
    17:00 +31°C° 0 mm 2 mps 615 mmHg 13%
    18:00 +28°C° 0 mm 2 mps 615 mmHg 19%
    19:00 +25°C° 0 mm 2 mps 614 mmHg 25%
    20:00 +23°C° 0 mm 1 mps 613 mmHg 30%
    21:00 +22°C° 0 mm 1 mps 613 mmHg 33%
    22:00 +21°C° 0 mm 1 mps 613 mmHg 35%
    23:00 +20°C° 0 mm 1 mps 613 mmHg 37%

    27 September, Friday

    Time Temperature Precipitation Wind Pressure Humidity
    00:00 +20°C° 0 mm 1 mps 613 mmHg 38%
    01:00 +17°C° 0 mm 0 mps 612 mmHg 39%
    02:00 +16°C° 0 mm 0 mps 612 mmHg 40%
    03:00 +16°C° 0 mm 0 mps 612 mmHg 41%
    04:00 +15°C° 0 mm 0 mps 612 mmHg 43%
    05:00 +15°C° 0 mm 0 mps 611 mmHg 44%
    06:00 +17°C° 0 mm 0 mps 612 mmHg 40%
    07:00 +19°C° 0 mm 0 mps 613 mmHg 36%
    08:00 +21°C° 0 mm 0 mps 614 mmHg 32%
    09:00 +23°C° 0 mm 0 mps 615 mmHg 29%
    10:00 +26°C° 0 mm 1 mps 615 mmHg 27%
    11:00 +28°C° 0 mm 1 mps 615 mmHg 24%
    12:00 +29°C° 0 mm 1 mps 615 mmHg 21%
    13:00 +30°C° 0 mm 2 mps 615 mmHg 17%
    14:00 +31°C° 0 mm 2 mps 615 mmHg 14%
    15:00 +31°C° 0 mm 2 mps 615 mmHg 13%
    16:00 +31°C° 0 mm 3 mps 614 mmHg 12%
    17:00 +31°C° 0 mm 3 mps 614 mmHg 11%
    18:00 +29°C° 0 mm 3 mps 614 mmHg 16%
    19:00 +26°C° 0 mm 2 mps 613 mmHg 21%
    20:00 +23°C° 0 mm 2 mps 613 mmHg 25%
    21:00 +21°C° 0 mm 2 mps 612 mmHg 27%
    22:00 +20°C° 0 mm 2 mps 612 mmHg 29%
    23:00 +20°C° 0 mm 1 mps 612 mmHg 30%

    28 September, Saturday

    Time Temperature Precipitation Wind Pressure Humidity
    00:00 +19°C° 0 mm 1 mps 612 mmHg 28%
    01:00 +19°C° 0 mm 1 mps 611 mmHg 27%
    02:00 +18°C° 0 mm 1 mps 611 mmHg 25%
    03:00 +18°C° 0 mm 1 mps 610 mmHg 24%
    04:00 +16°C° 0 mm 1 mps 610 mmHg 23%
    05:00 +16°C° 0 mm 1 mps 610 mmHg 23%
    06:00 +19°C° 0 mm 1 mps 611 mmHg 20%
    07:00 +21°C° 0 mm 1 mps 612 mmHg 18%
    08:00 +23°C° 0 mm 1 mps 613 mmHg 15%
    09:00 +25°C° 0 mm 1 mps 613 mmHg 13%
    10:00 +26°C° 0 mm 1 mps 613 mmHg 12%
    11:00 +28°C° 0 mm 1 mps 614 mmHg 10%
    12:00 +29°C° 0 mm 1 mps 613 mmHg 9%
    13:00 +30°C° 0 mm 1 mps 613 mmHg 8%
    14:00 +31°C° 0 mm 2 mps 613 mmHg 8%
    15:00 +31°C° 0 mm 2 mps 613 mmHg 8%
    16:00 +31°C° 0 mm 3 mps 613 mmHg 8%
    17:00 +30°C° 0 mm 3 mps 612 mmHg 8%
    18:00 +27°C° 0 mm 3 mps 612 mmHg 12%
    19:00 +25°C° 0 mm 2 mps 611 mmHg 16%
    20:00 +21°C° 0 mm 2 mps 611 mmHg 20%
    21:00 +20°C° 0 mm 2 mps 611 mmHg 24%
    22:00 +20°C° 0 mm 1 mps 611 mmHg 27%
    23:00 +19°C° 0 mm 1 mps 611 mmHg 31%

    29 September, Sunday

    Time Temperature Precipitation Wind Pressure Humidity
    00:00 +18°C° 0 mm 1 mps 610 mmHg 31%
    01:00 +16°C° 0 mm 1 mps 610 mmHg 32%
    02:00 +14°C° 0 mm 0 mps 609 mmHg 32%
    03:00 +14°C° 0 mm 0 mps 609 mmHg 33%
    04:00 +13°C° 0 mm 0 mps 608 mmHg 34%
    05:00 +13°C° 0 mm 0 mps 608 mmHg 35%
    06:00 +15°C° 0 mm 0 mps 609 mmHg 30%
    07:00 +17°C° 0 mm 0 mps 610 mmHg 26%
    08:00 +19°C° 0 mm 0 mps 611 mmHg 21%
    09:00 +23°C° 0 mm 1 mps 612 mmHg 21%
    10:00 +24°C° 0 mm 1 mps 612 mmHg 20%
    11:00 +26°C° 0 mm 2 mps 613 mmHg 19%
    12:00 +27°C° 0 mm 2 mps 612 mmHg 19%
    13:00 +28°C° 0 mm 3 mps 612 mmHg 20%
    14:00 +29°C° 0 mm 3 mps 612 mmHg 20%
    15:00 +28°C° 0 mm 3 mps 612 mmHg 26%
    16:00 +27°C° 0 mm 4 mps 611 mmHg 32%
    17:00 +26°C° 0 mm 4 mps 611 mmHg 38%
    18:00 +24°C° 0.1 mm 3 mps 611 mmHg 49%
    19:00 +21°C° 0.1 mm 3 mps 611 mmHg 61%
    20:00 +19°C° 0.1 mm 2 mps 611 mmHg 72%
    21:00 +18°C° 0.1 mm 2 mps 611 mmHg 76%
    22:00 +19°C° 0.1 mm 1 mps 610 mmHg 79%
    23:00 +18°C° 0.1 mm 1 mps 610 mmHg 82%
    Show more